This is the latest recevied weather packets stored in our database for station/object KC9GSD. If no packets are shown the sender has not sent any weather packets the latest 10 day(s).
| Time | Temp. | Humidity | Pressure | Rain* | Wind** | Luminosity | Snow |
|---|---|---|---|---|---|---|---|
| 1777773999 | 10.56° C | 68% | 1016.7 hPa | 0 mm | - | 0 W/m² | - |
| 1777773697 | 10.56° C | 67% | 1016.5 hPa | 0 mm | - | 0 W/m² | - |
| 1777773393 | 10.56° C | 68% | 1016.3 hPa | 0 mm | - | 0 W/m² | - |
| 1777773090 | 10.56° C | 68% | 1016.4 hPa | 0 mm | - | 0 W/m² | - |
| 1777772786 | 10.56° C | 68% | 1016.3 hPa | 0 mm | - | 0 W/m² | - |
| 1777772484 | 11.11° C | 69% | 1016.3 hPa | 0 mm | - | 0 W/m² | - |
| 1777772181 | 11.11° C | 70% | 1016 hPa | 0 mm | - | 0 W/m² | - |
| 1777771879 | 11.11° C | 68% | 1016.1 hPa | 0 mm | - | 0 W/m² | - |
| 1777771576 | 11.11° C | 68% | 1015.9 hPa | 0 mm | - | 0 W/m² | - |
| 1777771273 | 11.11° C | 64% | 1016 hPa | 0 mm | - | 0 W/m² | - |
| 1777770969 | 11.67° C | 66% | 1015.9 hPa | 0 mm | - | 0 W/m² | - |
| 1777770667 | 11.67° C | 69% | 1015.7 hPa | 0 mm | - | 0 W/m² | - |
| 1777770362 | 11.67° C | 65% | 1015.8 hPa | 0 mm | - | 0 W/m² | - |
| 1777770060 | 12.22° C | 69% | 1015.8 hPa | 0 mm | - | 0 W/m² | - |
| 1777769757 | 12.22° C | 64% | 1015.8 hPa | 0 mm | - | 0 W/m² | - |
| 1777769454 | 12.22° C | 67% | 1015.7 hPa | 0 mm | - | 0 W/m² | - |
| 1777769150 | 12.22° C | 63% | 1015.5 hPa | 0 mm | - | 0 W/m² | - |
| 1777768849 | 12.78° C | 59% | 1015.6 hPa | 0 mm | - | 1 W/m² | - |
| 1777768545 | 12.78° C | 63% | 1015.5 hPa | 0 mm | - | 1 W/m² | - |
| 1777768242 | 12.78° C | 59% | 1015.4 hPa | 0 mm | - | 2 W/m² | - |
| 1777767939 | 12.78° C | 59% | 1015.4 hPa | 0 mm | - | 4 W/m² | - |
| 1777767636 | 13.33° C | 59% | 1015.3 hPa | 0 mm | - | 6 W/m² | - |
| 1777767332 | 13.89° C | 56% | 1015.3 hPa | 0 mm | - | 8 W/m² | - |
| 1777767030 | 14.44° C | 55% | 1015.4 hPa | 0 mm | - | 11 W/m² | - |
| 1777766727 | 15° C | 51% | 1015.4 hPa | 0 mm | - | 13 W/m² | - |
* Rain latest hour (hover to see other rain measurements)
** Current wind speed in m/s (hover to see current wind gust speed)